When you browse on this site, cookies collect data to enhance your experience and personalize the content and advertising you see.
Visit our Privacy Policy to learn more. By continuing to use the site, you agree to this use of cookies and data.
  • In Romania
  • List of Countries
  • For 7 days
  • Water Temperature
  • Weather Map
  • Weather Widgets
  • user-avatar
    Login

    Hourly Weather Seoni Malwa

    Today, 20 August, Tuesday

    Time Temperature Precipitation Wind Pressure Humidity
    00:00 +27°C° 0 mm 3 mps 728 mmHg 91%
    01:00 +27°C° 0 mm 3 mps 728 mmHg 91%
    02:00 +26°C° 0 mm 3 mps 727 mmHg 92%
    03:00 +26°C° 0.6 mm 3 mps 727 mmHg 93%
    04:00 +26°C° 0.6 mm 3 mps 727 mmHg 94%
    05:00 +26°C° 0 mm 3 mps 727 mmHg 94%
    06:00 +26°C° 0.4 mm 4 mps 728 mmHg 93%
    07:00 +27°C° 0.4 mm 4 mps 728 mmHg 92%
    08:00 +27°C° 0.4 mm 4 mps 728 mmHg 90%
    09:00 +28°C° 0.5 mm 4 mps 728 mmHg 87%
    10:00 +29°C° 0.5 mm 4 mps 728 mmHg 84%
    11:00 +32°C° 0.5 mm 4 mps 728 mmHg 81%
    12:00 +32°C° 0.7 mm 4 mps 727 mmHg 79%
    13:00 +32°C° 0.7 mm 4 mps 727 mmHg 77%
    14:00 +33°C° 0.7 mm 4 mps 726 mmHg 74%
    15:00 +32°C° 1.4 mm 4 mps 726 mmHg 78%
    16:00 +30°C° 1.4 mm 3 mps 726 mmHg 81%
    17:00 +30°C° 1.4 mm 3 mps 725 mmHg 85%
    18:00 +29°C° 1.7 mm 3 mps 726 mmHg 86%
    19:00 +28°C° 1.7 mm 3 mps 726 mmHg 86%
    20:00 +28°C° 1.7 mm 3 mps 727 mmHg 87%
    21:00 +27°C° 0.7 mm 4 mps 727 mmHg 89%
    22:00 +27°C° 0.7 mm 4 mps 727 mmHg 90%
    23:00 +27°C° 0.7 mm 4 mps 727 mmHg 91%

    Tomorrow, 21 August, Wednesday

    Time Temperature Precipitation Wind Pressure Humidity
    00:00 +26°C° 0.1 mm 4 mps 726 mmHg 92%
    01:00 +26°C° 0.1 mm 4 mps 726 mmHg 92%
    02:00 +26°C° 0.1 mm 4 mps 726 mmHg 92%
    03:00 +26°C° 0.1 mm 4 mps 725 mmHg 93%
    04:00 +26°C° 0.1 mm 4 mps 725 mmHg 93%
    05:00 +26°C° 0.1 mm 4 mps 725 mmHg 94%
    06:00 +26°C° 0.2 mm 5 mps 726 mmHg 92%
    07:00 +27°C° 0.2 mm 5 mps 726 mmHg 90%
    08:00 +28°C° 0.2 mm 5 mps 727 mmHg 89%
    09:00 +29°C° 0.7 mm 5 mps 727 mmHg 85%
    10:00 +30°C° 0.7 mm 5 mps 727 mmHg 81%
    11:00 +32°C° 0.7 mm 5 mps 727 mmHg 78%
    12:00 +33°C° 0.9 mm 5 mps 726 mmHg 76%
    13:00 +33°C° 0.9 mm 5 mps 726 mmHg 74%
    14:00 +33°C° 0.9 mm 5 mps 726 mmHg 71%
    15:00 +32°C° 1.5 mm 4 mps 725 mmHg 76%
    16:00 +30°C° 1.5 mm 4 mps 725 mmHg 80%
    17:00 +30°C° 1.5 mm 3 mps 725 mmHg 85%
    18:00 +29°C° 1.3 mm 3 mps 725 mmHg 85%
    19:00 +28°C° 1.3 mm 3 mps 725 mmHg 86%
    20:00 +28°C° 1.3 mm 3 mps 726 mmHg 86%
    21:00 +27°C° 0.5 mm 3 mps 726 mmHg 88%
    22:00 +27°C° 0.5 mm 3 mps 726 mmHg 89%
    23:00 +27°C° 0.5 mm 3 mps 726 mmHg 91%

    Day after tomorrow, 22 August, Thursday

    Time Temperature Precipitation Wind Pressure Humidity
    00:00 +26°C° 0.6 mm 3 mps 725 mmHg 91%
    01:00 +26°C° 0.6 mm 3 mps 725 mmHg 92%
    02:00 +26°C° 0.6 mm 4 mps 725 mmHg 92%
    03:00 +26°C° 1.5 mm 4 mps 725 mmHg 92%
    04:00 +26°C° 1.5 mm 4 mps 725 mmHg 92%
    05:00 +26°C° 1.5 mm 4 mps 725 mmHg 92%
    06:00 +25°C° 0.8 mm 4 mps 726 mmHg 92%
    07:00 +25°C° 0.8 mm 4 mps 726 mmHg 92%
    08:00 +25°C° 0.8 mm 4 mps 726 mmHg 92%
    09:00 +26°C° 0 mm 4 mps 726 mmHg 91%
    10:00 +27°C° 0 mm 4 mps 726 mmHg 89%
    11:00 +27°C° 0 mm 4 mps 726 mmHg 88%
    12:00 +28°C° 0.4 mm 4 mps 726 mmHg 86%
    13:00 +29°C° 0.4 mm 4 mps 725 mmHg 85%
    14:00 +29°C° 0.4 mm 5 mps 725 mmHg 83%
    15:00 +29°C° 1.6 mm 4 mps 724 mmHg 85%
    16:00 +28°C° 1.6 mm 4 mps 724 mmHg 86%
    17:00 +28°C° 1.6 mm 3 mps 724 mmHg 88%
    18:00 +28°C° 2.6 mm 4 mps 724 mmHg 88%
    19:00 +27°C° 2.6 mm 4 mps 725 mmHg 89%
    20:00 +27°C° 2.6 mm 4 mps 725 mmHg 89%
    21:00 +27°C° 0.9 mm 4 mps 725 mmHg 90%
    22:00 +27°C° 0.9 mm 4 mps 725 mmHg 90%
    23:00 +26°C° 0.9 mm 4 mps 725 mmHg 91%

    23 August, Friday

    Time Temperature Precipitation Wind Pressure Humidity
    00:00 +26°C° 0.6 mm 4 mps 725 mmHg 91%
    01:00 +26°C° 0.6 mm 4 mps 725 mmHg 91%
    02:00 +26°C° 0.6 mm 4 mps 724 mmHg 91%
    03:00 +25°C° 0.1 mm 4 mps 725 mmHg 92%
    04:00 +25°C° 0.1 mm 4 mps 725 mmHg 92%
    05:00 +25°C° 0.1 mm 4 mps 725 mmHg 93%
    06:00 +25°C° 0 mm 4 mps 725 mmHg 92%
    07:00 +25°C° 0 mm 4 mps 726 mmHg 92%
    08:00 +26°C° 0 mm 4 mps 726 mmHg 91%
    09:00 +27°C° 0.1 mm 4 mps 726 mmHg 89%
    10:00 +27°C° 0.1 mm 4 mps 726 mmHg 87%
    11:00 +28°C° 0.1 mm 5 mps 726 mmHg 85%
    12:00 +29°C° 0.6 mm 5 mps 725 mmHg 83%
    13:00 +30°C° 0.6 mm 5 mps 725 mmHg 81%
    14:00 +32°C° 0.6 mm 5 mps 724 mmHg 79%
    15:00 +30°C° 2.5 mm 4 mps 724 mmHg 82%
    16:00 +29°C° 2.5 mm 4 mps 724 mmHg 85%
    17:00 +28°C° 2.5 mm 3 mps 724 mmHg 88%
    18:00 +28°C° 1.5 mm 3 mps 724 mmHg 89%
    19:00 +27°C° 1.5 mm 3 mps 725 mmHg 89%
    20:00 +27°C° 1.5 mm 3 mps 725 mmHg 90%
    21:00 +27°C° 0.3 mm 3 mps 725 mmHg 91%
    22:00 +27°C° 0.3 mm 3 mps 726 mmHg 92%
    23:00 +26°C° 0.3 mm 3 mps 726 mmHg 93%

    24 August, Saturday

    Time Temperature Precipitation Wind Pressure Humidity
    00:00 +26°C° 0.2 mm 3 mps 725 mmHg 93%
    01:00 +26°C° 0.2 mm 4 mps 725 mmHg 93%
    02:00 +26°C° 0.2 mm 4 mps 724 mmHg 93%
    03:00 +26°C° 0.6 mm 4 mps 725 mmHg 93%
    04:00 +26°C° 0.6 mm 4 mps 725 mmHg 94%
    05:00 +26°C° 0.6 mm 4 mps 725 mmHg 94%
    06:00 +26°C° 0.5 mm 4 mps 725 mmHg 94%
    07:00 +26°C° 0.5 mm 4 mps 726 mmHg 94%
    08:00 +26°C° 0.5 mm 4 mps 727 mmHg 94%
    09:00 +25°C° 2.1 mm 4 mps 727 mmHg 95%
    10:00 +25°C° 2.1 mm 4 mps 727 mmHg 96%
    11:00 +25°C° 2.1 mm 4 mps 727 mmHg 96%
    12:00 +25°C° 2.4 mm 4 mps 726 mmHg 96%
    13:00 +25°C° 2.4 mm 4 mps 726 mmHg 96%
    14:00 +25°C° 2.4 mm 4 mps 725 mmHg 96%
    15:00 +25°C° 1.3 mm 4 mps 725 mmHg 96%
    16:00 +25°C° 1.3 mm 4 mps 725 mmHg 96%
    17:00 +25°C° 1.3 mm 4 mps 725 mmHg 96%
    18:00 +25°C° 0.1 mm 3 mps 725 mmHg 96%
    19:00 +25°C° 0.1 mm 3 mps 725 mmHg 96%
    20:00 +25°C° 0.1 mm 3 mps 726 mmHg 96%
    21:00 +25°C° 0.1 mm 3 mps 726 mmHg 96%
    22:00 +25°C° 0.1 mm 3 mps 726 mmHg 96%
    23:00 +25°C° 0.1 mm 3 mps 726 mmHg 96%

    25 August, Sunday

    Time Temperature Precipitation Wind Pressure Humidity
    00:00 +25°C° 0 mm 3 mps 725 mmHg 96%
    01:00 +25°C° 0 mm 2 mps 725 mmHg 96%
    02:00 +25°C° 0 mm 2 mps 724 mmHg 96%
    03:00 +25°C° 0.8 mm 2 mps 724 mmHg 96%
    04:00 +25°C° 0.8 mm 3 mps 724 mmHg 96%
    05:00 +25°C° 0.8 mm 3 mps 724 mmHg 97%
    06:00 +25°C° 4 mm 4 mps 725 mmHg 97%
    07:00 +25°C° 4 mm 5 mps 725 mmHg 96%
    08:00 +24°C° 4 mm 6 mps 726 mmHg 96%
    09:00 +24°C° 1.8 mm 6 mps 726 mmHg 96%
    10:00 +25°C° 1.8 mm 5 mps 726 mmHg 96%
    11:00 +25°C° 1.8 mm 5 mps 726 mmHg 95%
    12:00 +25°C° 1 mm 5 mps 725 mmHg 95%
    13:00 +25°C° 1 mm 5 mps 725 mmHg 95%
    14:00 +25°C° 1 mm 4 mps 724 mmHg 95%
    15:00 +25°C° 0.8 mm 4 mps 724 mmHg 96%
    16:00 +25°C° 0.8 mm 4 mps 724 mmHg 96%
    17:00 +25°C° 0.8 mm 4 mps 724 mmHg 96%
    18:00 +25°C° 1 mm 4 mps 724 mmHg 96%
    19:00 +25°C° 1 mm 4 mps 725 mmHg 96%
    20:00 +23°C° 1 mm 5 mps 725 mmHg 97%
    21:00 +23°C° 2.8 mm 5 mps 725 mmHg 97%
    22:00 +23°C° 2.8 mm 5 mps 725 mmHg 97%
    23:00 +23°C° 2.8 mm 5 mps 725 mmHg 98%
    Show more